Fecha, hora, temperatura, viento dirección y velocidad, humedad y presión.

  • 19-03-2019 23:00:00 | 15.20°C | Este |25.00 km/h | 83.00% | 0.00 hPa
  • 19-03-2019 22:00:00 | 15.00°C | Nordeste |15.00 km/h | 86.00% | 0.00 hPa
  • 19-03-2019 21:00:00 | 14.80°C | Nordeste |19.00 km/h | 77.00% | 0.00 hPa
  • 19-03-2019 20:00:00 | 15.00°C | Nordeste |11.00 km/h | 54.00% | 0.00 hPa
  • 19-03-2019 19:00:00 | 17.30°C | Nordeste |9.00 km/h | 53.00% | 0.00 hPa
  • 19-03-2019 18:00:00 | 17.40°C | Este |13.00 km/h | 67.00% | 0.00 hPa
  • 19-03-2019 17:00:00 | 16.80°C | Este |15.00 km/h | 72.00% | 0.00 hPa
  • 19-03-2019 16:00:00 | 17.30°C | Este |18.00 km/h | 73.00% | 0.00 hPa
  • 19-03-2019 15:00:00 | 16.90°C | Este |17.00 km/h | 77.00% | 0.00 hPa
  • 19-03-2019 14:00:00 | 17.10°C | Este |19.00 km/h | 76.00% | 0.00 hPa
  • 19-03-2019 13:00:00 | 17.20°C | Este |21.00 km/h | 76.00% | 0.00 hPa
  • 19-03-2019 12:00:00 | 16.80°C | Este |22.00 km/h | 76.00% | 0.00 hPa
  • 19-03-2019 11:00:00 | 17.10°C | Este |19.00 km/h | 77.00% | 0.00 hPa
  • 19-03-2019 10:00:00 | 16.70°C | Este |17.00 km/h | 82.00% | 0.00 hPa
  • 19-03-2019 09:00:00 | 15.40°C | Este |23.00 km/h | 86.00% | 0.00 hPa
  • 19-03-2019 08:00:00 | 14.80°C | Este |22.00 km/h | 88.00% | 0.00 hPa
  • 19-03-2019 07:00:00 | 14.80°C | Este |20.00 km/h | 90.00% | 0.00 hPa
  • 19-03-2019 06:00:00 | 14.80°C | Este |19.00 km/h | 90.00% | 0.00 hPa
  • 19-03-2019 05:00:00 | 14.80°C | Este |19.00 km/h | 91.00% | 0.00 hPa
  • 19-03-2019 04:00:00 | 14.60°C | Este |20.00 km/h | 91.00% | 0.00 hPa
  • 19-03-2019 03:00:00 | 14.60°C | Este |24.00 km/h | 92.00% | 0.00 hPa
  • 19-03-2019 02:00:00 | 14.50°C | Este |22.00 km/h | 92.00% | 0.00 hPa
  • 19-03-2019 01:00:00 | 14.60°C | Este |21.00 km/h | 92.00% | 0.00 hPa
  • 19-03-2019 00:00:00 | 14.80°C | Este |22.00 km/h | 92.00% | 0.00 hPa
    • diseño web asturias Información sobre el estado de las mareas, altura de la marejada, temperatura del agua y otros datos de Gijón en Asturias.

      Surf Gijón